EST,Max TemperatureF,Mean TemperatureF,Min TemperatureF,Max Dew PointF,MeanDew PointF,Min DewpointF,Max Humidity, Mean Humidity, Min Humidity, Max Sea Level PressureIn, Mean Sea Level PressureIn, Min Sea Level PressureIn, Max VisibilityMiles, Mean VisibilityMiles, Min VisibilityMiles, Max Wind SpeedMPH, Mean Wind SpeedMPH, Max Gust SpeedMPH,PrecipitationIn, CloudCover, Events, WindDirDegrees
2013-12-1,55,44,33,36,30,24,82,64,46,30.15,30.06,29.98,10,10,7,13,7,15,0.00,1,,220
2013-12-2,51,42,33,39,35,30,89,74,59,29.96,29.86,29.78,9,6,3,13,6,15,T,6,,77
2013-12-3,54,45,35,47,40,33,93,85,77,29.85,29.79,29.76,9,4,0,13,7,24,0.00,6,Fog,126
2013-12-4,62,54,46,57,51,43,93,86,78,29.83,29.75,29.65,10,5,2,18,10,22,0.01,7,Rain,154
2013-12-5,61,44,27,55,32,24,86,81,75,30.20,30.03,29.74,10,7,1,18,11,23,0.30,8,Rain-Snow,306
2013-12-6,28,27,25,23,22,19,88,82,75,30.45,30.27,30.18,10,3,0,17,11,19,0.18,8,Fog-Snow,345
2013-12-7,26,17,7,17,10,3,91,77,62,30.66,30.58,30.43,10,9,2,13,7,16,0.00,1,,354
2013-12-8,31,23,15,28,21,11,92,80,68,30.53,30.20,29.99,10,5,1,20,11,25,T,8,Snow,104
2013-12-9,32,28,23,29,22,13,92,76,60,30.27,30.14,29.99,10,7,2,20,11,22,T,7,Snow,258
2013-12-10,27,19,10,17,13,8,84,67,50,30.38,30.23,30.16,10,6,1,23,9,27,0.06,4,Snow,258
2013-12-11,31,18,5,19,12,1,92,75,58,30.56,30.42,30.32,10,8,4,20,10,24,T,3,Snow,259
2013-12-12,21,10,-1,5,1,-7,79,62,45,30.59,30.50,30.37,10,10,10,14,8,17,0.00,0,,207
2013-12-13,37,24,11,30,20,1,89,69,49,30.35,30.22,30.13,10,6,1,22,9,30,0.11,3,Snow,176
2013-12-14,37,33,29,33,32,25,96,87,78,30.12,29.90,29.71,10,4,2,18,10,23,0.57,8,Rain-Snow,90
2013-12-15,30,26,22,25,19,12,85,74,62,30.14,30.06,29.94,10,8,2,24,12,29,T,7,Snow,271
2013-12-16,31,25,19,27,23,16,88,82,75,30.13,30.06,29.99,6,3,0,12,5,12,0.07,7,Fog-Snow,79
2013-12-17,30,25,20,26,22,20,88,80,72,30.19,30.09,30.03,10,8,2,16,10,21,T,7,Snow,263
2013-12-18,36,26,15,20,16,9,88,68,47,30.29,30.18,30.04,10,10,6,17,10,22,0.00,0,,209
2013-12-19,48,41,33,41,31,19,76,64,52,30.05,30.00,29.91,10,10,10,16,12,20,0.00,3,,182
2013-12-20,60,54,47,58,51,41,93,80,66,29.90,29.82,29.76,10,6,2,23,15,27,0.70,8,Rain,188
2013-12-21,60,52,43,55,47,40,96,91,86,29.81,29.68,29.48,10,4,1,18,8,24,3.75,8,Rain,3
2013-12-22,63,49,35,59,40,29,97,87,76,30.10,29.81,29.40,10,9,3,30,16,38,0.13,8,Rain,249
2013-12-23,35,29,22,30,21,12,89,73,57,30.44,30.31,30.11,10,10,9,20,12,32,0.00,7,,285
2013-12-24,21,16,10,12,6,3,73,67,61,30.60,30.52,30.42,10,10,2,21,9,24,T,4,Snow,284
2013-12-25,31,26,21,23,16,12,73,65,57,30.47,30.34,30.21,10,10,10,21,12,25,0.00,7,,197
2013-12-26,38,32,26,26,23,19,75,64,52,30.40,30.30,30.17,10,10,10,21,11,26,0.00,4,,243
2013-12-27,46,37,28,32,27,22,75,64,53,30.41,30.34,30.27,10,10,10,12,8,14,0.00,1,,190
2013-12-28,51,42,32,35,30,28,82,68,53,30.26,30.17,29.99,10,10,10,15,10,18,0.00,0,,186
2013-12-29,47,39,30,37,31,25,92,76,60,30.09,29.93,29.81,10,7,2,23,11,30,T,7,Snow,256
2013-12-30,30,26,21,25,16,11,81,68,55,30.30,30.21,30.09,10,9,5,17,8,23,T,6,Snow,281
2013-12-31,34,29,23,22,16,12,69,59,49,30.40,30.29,30.20,10,10,10,22,10,27,T,4,,246